JBU32 EHAM-KBOS

Flight info

Callsign JBU32
Flight time N/A
Altitude 34000
Route IDRID L980 LAM L179 UGBET Q60 OKSAW DCT FELCA DCT FADZU DCT BANBA DCT LODLA DCT ADARA/M078F340 DCT 51N030W/N0452F340 DCT BUDAR N446A MIILS DCT AJJAY OOSHN5
Aircraft A21N/M-SDE3FGHIRWY/LB1

Departure

Time N/A
Airport Amsterdam Airport Schiphol (EHAM)

Arrival

Time 2026-05-04 20:42
Airport Boston Logan International Airport (KBOS)
Time Latitude Longitude Altitude Speed Heading
2026-05-04 18:32 49.41618 -55.86831 33157 ft 450 kts 252°
2026-05-04 18:33 49.40829 -55.91476 33154 ft 450 kts 252°
2026-05-04 18:33 49.39251 -56.00748 33158 ft 450 kts 252°
2026-05-04 18:34 49.37669 -56.09981 33163 ft 449 kts 252°
2026-05-04 18:34 49.36078 -56.19225 33162 ft 449 kts 252°
2026-05-04 18:35 49.34486 -56.28430 33164 ft 449 kts 252°
2026-05-04 18:35 49.32883 -56.37644 33153 ft 448 kts 253°
2026-05-04 18:36 49.31268 -56.46875 33151 ft 448 kts 253°
2026-05-04 18:36 49.29654 -56.56060 33144 ft 449 kts 253°
2026-05-04 18:37 49.28033 -56.65235 33147 ft 449 kts 252°
2026-05-04 18:37 49.26408 -56.74392 33154 ft 449 kts 252°
2026-05-04 18:38 49.24765 -56.83592 33164 ft 448 kts 252°
2026-05-04 18:38 49.23118 -56.92767 33174 ft 448 kts 252°
2026-05-04 18:39 49.21476 -57.01868 33181 ft 447 kts 252°
2026-05-04 18:39 49.19826 -57.10975 33188 ft 447 kts 252°
2026-05-04 18:40 49.18164 -57.20103 33186 ft 446 kts 252°
2026-05-04 18:40 49.16497 -57.29211 33188 ft 446 kts 253°
2026-05-04 18:41 49.14823 -57.38310 33186 ft 446 kts 253°
2026-05-04 18:41 49.13147 -57.47385 33189 ft 446 kts 252°
2026-05-04 18:42 49.11467 -57.56426 33198 ft 445 kts 253°
2026-05-04 18:42 49.09779 -57.65465 33201 ft 445 kts 252°
2026-05-04 18:43 49.08084 -57.74496 33203 ft 445 kts 252°
2026-05-04 18:43 49.06381 -57.83537 33206 ft 445 kts 252°
2026-05-04 18:44 49.04671 -57.92559 33208 ft 445 kts 252°
2026-05-04 18:44 49.02958 -58.01555 33212 ft 444 kts 252°
2026-05-04 18:45 49.01229 -58.10606 33213 ft 444 kts 252°
2026-05-04 18:45 48.99503 -58.19589 33220 ft 443 kts 252°
2026-05-04 18:46 48.97779 -58.28526 33227 ft 443 kts 252°
2026-05-04 18:46 48.96045 -58.37468 33222 ft 443 kts 252°
2026-05-04 18:47 48.94297 -58.46430 33234 ft 443 kts 252°
2026-05-04 18:47 48.92544 -58.55384 33241 ft 443 kts 253°
2026-05-04 18:48 48.90784 -58.64329 33263 ft 443 kts 253°
2026-05-04 18:48 48.89022 -58.73248 33269 ft 442 kts 252°
2026-05-04 18:49 48.87262 -58.82120 33278 ft 442 kts 252°
2026-05-04 18:49 48.85482 -58.91045 33297 ft 441 kts 252°
2026-05-04 18:50 48.83707 -58.99910 33293 ft 441 kts 252°
2026-05-04 18:50 48.81930 -59.08734 33308 ft 441 kts 252°
2026-05-04 18:51 48.80141 -59.17584 33306 ft 440 kts 252°
2026-05-04 18:51 48.78340 -59.26452 33307 ft 440 kts 252°
2026-05-04 18:52 48.76550 -59.35228 33300 ft 440 kts 252°
2026-05-04 18:52 48.74736 -59.44086 33306 ft 440 kts 252°
2026-05-04 18:53 48.72927 -59.52874 33312 ft 440 kts 252°
2026-05-04 18:53 48.71103 -59.61702 33313 ft 439 kts 252°
2026-05-04 18:54 48.69281 -59.70477 33334 ft 439 kts 252°
2026-05-04 18:54 48.67451 -59.79254 33340 ft 439 kts 252°
2026-05-04 18:55 48.65622 -59.87988 33344 ft 439 kts 252°
2026-05-04 18:55 48.62861 -60.01100 33328 ft 439 kts 252°
2026-05-04 18:56 48.60999 -60.09891 33328 ft 439 kts 252°
2026-05-04 18:56 48.59144 -60.18618 33342 ft 438 kts 252°
2026-05-04 18:57 48.57282 -60.27336 33344 ft 439 kts 252°
2026-05-04 18:57 48.55405 -60.36090 33351 ft 439 kts 252°
2026-05-04 18:58 48.53528 -60.44808 33356 ft 438 kts 252°
2026-05-04 18:58 48.51661 -60.53442 33358 ft 438 kts 252°
2026-05-04 18:59 48.49773 -60.62135 33367 ft 438 kts 252°
2026-05-04 18:59 48.47879 -60.70813 33372 ft 437 kts 251°
2026-05-04 19:00 48.45983 -60.79477 33368 ft 437 kts 251°
2026-05-04 19:00 48.44072 -60.88168 33379 ft 437 kts 251°
2026-05-04 19:01 48.42165 -60.96795 33394 ft 437 kts 252°
2026-05-04 19:01 48.40252 -61.05419 33396 ft 436 kts 252°
2026-05-04 19:02 48.38333 -61.14043 33400 ft 436 kts 252°
2026-05-04 19:02 48.36404 -61.22670 33409 ft 435 kts 252°
2026-05-04 19:03 48.34483 -61.31232 33415 ft 436 kts 252°
2026-05-04 19:03 48.32544 -61.39835 33416 ft 435 kts 252°
2026-05-04 19:04 48.30597 -61.48430 33434 ft 435 kts 252°
2026-05-04 19:04 48.28658 -61.56964 33441 ft 435 kts 252°
2026-05-04 19:05 48.26703 -61.65531 33450 ft 435 kts 251°
2026-05-04 19:05 48.24744 -61.74080 33451 ft 434 kts 251°
2026-05-04 19:06 48.22793 -61.82565 33446 ft 434 kts 251°
2026-05-04 19:06 48.20823 -61.91097 33450 ft 433 kts 251°
2026-05-04 19:07 48.18860 -61.99569 33453 ft 433 kts 251°
2026-05-04 19:07 48.16874 -62.08106 33464 ft 433 kts 251°
2026-05-04 19:08 48.14902 -62.16543 33463 ft 432 kts 251°
2026-05-04 19:08 48.12909 -62.25038 33462 ft 433 kts 251°
2026-05-04 19:09 48.10919 -62.33487 33460 ft 433 kts 251°
2026-05-04 19:09 48.08928 -62.41907 33464 ft 432 kts 251°
2026-05-04 19:10 48.07262 -62.48932 33472 ft 432 kts 251°
2026-05-04 19:10 48.04910 -62.58814 33487 ft 432 kts 251°
2026-05-04 19:11 48.02907 -62.67186 33491 ft 432 kts 250°
2026-05-04 19:11 48.00889 -62.75587 33494 ft 432 kts 250°
2026-05-04 19:12 47.97848 -62.88197 33505 ft 431 kts 250°
2026-05-04 19:13 47.95816 -62.96584 33503 ft 431 kts 250°
2026-05-04 19:13 47.93778 -63.04963 33517 ft 431 kts 250°
2026-05-04 19:14 47.91735 -63.13330 33517 ft 431 kts 250°
2026-05-04 19:14 47.89696 -63.21650 33523 ft 431 kts 250°
2026-05-04 19:15 47.87646 -63.29975 33529 ft 431 kts 250°
2026-05-04 19:15 47.85241 -63.39710 33521 ft 431 kts 250°
2026-05-04 19:16 47.83521 -63.46649 33533 ft 430 kts 250°
2026-05-04 19:16 47.81449 -63.54972 33535 ft 430 kts 250°
2026-05-04 19:17 47.79370 -63.63300 33533 ft 430 kts 250°
2026-05-04 19:17 47.77300 -63.71557 33539 ft 429 kts 249°
2026-05-04 19:18 47.75211 -63.79867 33532 ft 430 kts 249°
2026-05-04 19:18 47.73119 -63.88150 33548 ft 429 kts 249°
2026-05-04 19:19 47.71033 -63.96384 33542 ft 430 kts 249°
2026-05-04 19:19 47.68930 -64.04652 33552 ft 430 kts 249°
2026-05-04 19:20 47.66824 -64.12902 33551 ft 429 kts 249°
2026-05-04 19:20 47.64706 -64.21166 33552 ft 429 kts 249°
2026-05-04 19:21 47.62585 -64.29414 33557 ft 429 kts 249°
2026-05-04 19:21 47.60465 -64.37634 33563 ft 429 kts 249°
2026-05-04 19:22 47.58345 -64.45824 33560 ft 429 kts 249°
2026-05-04 19:22 47.56221 -64.53996 33565 ft 428 kts 249°
2026-05-04 19:23 47.54081 -64.62202 33573 ft 428 kts 249°
2026-05-04 19:23 47.51938 -64.70388 33573 ft 428 kts 249°
2026-05-04 19:24 47.49790 -64.78565 33573 ft 428 kts 249°
2026-05-04 19:24 47.47633 -64.86752 33575 ft 427 kts 249°
2026-05-04 19:25 47.45484 -64.94876 33579 ft 427 kts 249°
2026-05-04 19:25 47.43329 -65.02996 33578 ft 427 kts 249°
2026-05-04 19:26 47.41163 -65.11130 33578 ft 427 kts 249°
2026-05-04 19:26 47.38979 -65.19305 33578 ft 427 kts 249°
2026-05-04 19:27 47.36802 -65.27418 33578 ft 427 kts 249°
2026-05-04 19:27 47.34626 -65.35501 33584 ft 427 kts 249°
2026-05-04 19:28 47.32438 -65.43607 33590 ft 427 kts 249°
2026-05-04 19:28 47.30233 -65.51745 33596 ft 427 kts 249°
2026-05-04 19:29 47.28031 -65.59843 33585 ft 427 kts 249°
2026-05-04 19:29 47.25830 -65.67910 33608 ft 427 kts 248°
2026-05-04 19:30 47.23626 -65.75962 33600 ft 427 kts 248°
2026-05-04 19:30 47.21412 -65.84020 33587 ft 427 kts 248°
2026-05-04 19:31 47.19186 -65.92100 33602 ft 427 kts 248°
2026-05-04 19:31 47.16955 -66.00163 33584 ft 427 kts 248°
2026-05-04 19:32 47.14721 -66.08216 33598 ft 427 kts 248°
2026-05-04 19:32 47.12491 -66.16228 33607 ft 427 kts 248°
2026-05-04 19:33 47.10251 -66.24254 33618 ft 426 kts 248°
2026-05-04 19:33 47.07993 -66.32309 33623 ft 426 kts 248°
2026-05-04 19:34 47.05753 -66.40276 33626 ft 425 kts 248°
2026-05-04 19:34 47.03492 -66.48292 33629 ft 425 kts 249°
2026-05-04 19:35 47.01247 -66.56230 33631 ft 425 kts 249°
2026-05-04 19:35 46.98986 -66.64204 33636 ft 424 kts 249°
2026-05-04 19:36 46.96745 -66.72091 33639 ft 423 kts 248°
2026-05-04 19:36 46.94476 -66.80054 33637 ft 423 kts 248°
2026-05-04 19:37 46.92220 -66.87932 33635 ft 423 kts 248°
2026-05-04 19:37 46.89761 -66.95722 33646 ft 423 kts 242°
2026-05-04 19:38 46.86398 -67.02724 33656 ft 423 kts 232°
2026-05-04 19:38 46.82157 -67.08699 33648 ft 425 kts 221°
2026-05-04 19:39 46.77230 -67.13468 33655 ft 428 kts 214°
2026-05-04 19:39 46.72126 -67.17870 33660 ft 427 kts 214°
2026-05-04 19:40 46.67018 -67.22254 33669 ft 427 kts 214°
2026-05-04 19:40 46.61940 -67.26607 33672 ft 426 kts 214°
2026-05-04 19:41 46.56824 -67.30988 33664 ft 427 kts 214°
2026-05-04 19:41 46.51718 -67.35352 33668 ft 427 kts 214°
2026-05-04 19:42 46.46616 -67.39702 33678 ft 427 kts 214°
2026-05-04 19:42 46.41537 -67.44021 33677 ft 426 kts 215°
2026-05-04 19:43 46.36431 -67.48355 33685 ft 426 kts 215°
2026-05-04 19:43 46.31312 -67.52692 33704 ft 426 kts 215°
2026-05-04 19:44 46.26199 -67.57012 33704 ft 426 kts 215°
2026-05-04 19:44 46.21108 -67.61304 33704 ft 425 kts 215°
2026-05-04 19:45 46.16029 -67.65579 33722 ft 425 kts 214°
2026-05-04 19:45 46.10928 -67.69859 33729 ft 425 kts 215°
2026-05-04 19:46 46.05814 -67.74145 33720 ft 424 kts 215°
2026-05-04 19:46 46.00732 -67.78393 33735 ft 424 kts 215°
2026-05-04 19:47 45.95643 -67.82638 33715 ft 424 kts 215°
2026-05-04 19:47 45.90547 -67.86880 33725 ft 424 kts 215°
2026-05-04 19:48 45.85448 -67.91114 33733 ft 424 kts 215°
2026-05-04 19:48 45.80374 -67.95322 33731 ft 423 kts 215°
2026-05-04 19:49 45.75281 -67.99533 33729 ft 424 kts 215°
2026-05-04 19:49 45.70187 -68.03736 33736 ft 423 kts 216°
2026-05-04 19:50 45.65080 -68.07945 33733 ft 423 kts 216°
2026-05-04 19:50 45.60017 -68.12106 33739 ft 423 kts 216°
2026-05-04 19:51 45.54898 -68.16308 33737 ft 423 kts 216°
2026-05-04 19:51 45.49820 -68.20462 33735 ft 423 kts 216°
2026-05-04 19:52 45.44744 -68.24608 33737 ft 423 kts 216°
2026-05-04 19:52 45.39650 -68.28760 33735 ft 423 kts 216°
2026-05-04 19:53 45.34562 -68.32900 33736 ft 423 kts 216°
2026-05-04 19:53 45.29444 -68.37051 33748 ft 422 kts 216°
2026-05-04 19:54 45.24353 -68.41174 33743 ft 422 kts 216°
2026-05-04 19:54 45.19269 -68.45282 33752 ft 421 kts 216°
2026-05-04 19:55 45.14194 -68.49374 33751 ft 421 kts 217°
2026-05-04 19:55 45.09123 -68.53457 33746 ft 420 kts 217°
2026-05-04 19:56 45.04035 -68.57544 33758 ft 420 kts 217°
2026-05-04 19:56 44.98980 -68.61599 33753 ft 420 kts 217°
2026-05-04 19:57 44.93911 -68.65657 33758 ft 420 kts 216°
2026-05-04 19:57 44.88808 -68.69729 33774 ft 420 kts 216°
2026-05-04 19:58 44.83736 -68.73770 33782 ft 420 kts 216°
2026-05-04 19:58 44.78670 -68.77797 33790 ft 419 kts 216°
2026-05-04 19:59 44.73605 -68.81817 33792 ft 420 kts 216°
2026-05-04 19:59 44.68533 -68.85835 33788 ft 420 kts 216°
2026-05-04 20:00 44.63451 -68.89849 33783 ft 420 kts 216°
2026-05-04 20:00 44.58372 -68.93854 33775 ft 420 kts 216°
2026-05-04 20:01 44.53291 -68.97854 33797 ft 419 kts 216°
2026-05-04 20:01 44.48206 -69.01850 33793 ft 419 kts 216°
2026-05-04 20:02 44.43144 -69.05819 33788 ft 419 kts 216°
2026-05-04 20:02 44.38050 -69.09803 33785 ft 419 kts 216°
2026-05-04 20:03 44.32977 -69.13765 33790 ft 420 kts 217°
2026-05-04 20:03 44.27893 -69.17726 33780 ft 419 kts 216°
2026-05-04 20:04 44.22818 -69.21674 33802 ft 419 kts 217°
2026-05-04 20:04 44.17738 -69.25616 33790 ft 419 kts 217°
2026-05-04 20:05 44.12674 -69.29542 33791 ft 418 kts 216°
2026-05-04 20:05 44.07584 -69.33478 33786 ft 419 kts 217°
2026-05-04 20:06 44.02510 -69.37395 33790 ft 419 kts 216°
2026-05-04 20:06 43.97412 -69.41324 33790 ft 419 kts 216°
2026-05-04 20:07 43.92316 -69.45243 33769 ft 419 kts 217°
2026-05-04 20:07 43.87248 -69.49135 33787 ft 419 kts 217°
2026-05-04 20:08 43.82154 -69.53044 33786 ft 419 kts 216°
2026-05-04 20:08 43.77071 -69.56928 33792 ft 419 kts 216°
2026-05-04 20:08 43.74461 -69.58800 33659 ft 424 kts 213°
2026-05-04 20:09 43.71741 -69.60481 33008 ft 434 kts 210°
2026-05-04 20:09 43.68931 -69.61935 32349 ft 441 kts 206°
2026-05-04 20:09 43.65982 -69.63268 31644 ft 445 kts 206°
2026-05-04 20:09 43.63053 -69.64586 30834 ft 449 kts 205°
2026-05-04 20:10 43.60076 -69.65927 29975 ft 452 kts 204°
2026-05-04 20:10 43.57091 -69.67272 29127 ft 455 kts 204°
2026-05-04 20:10 43.54085 -69.68626 28318 ft 456 kts 204°
2026-05-04 20:10 43.51088 -69.69970 27628 ft 454 kts 204°
2026-05-04 20:11 43.48104 -69.71307 27150 ft 446 kts 204°
2026-05-04 20:11 43.45208 -69.72604 26669 ft 440 kts 204°
2026-05-04 20:11 43.42320 -69.73897 26187 ft 434 kts 204°
2026-05-04 20:11 43.39463 -69.75180 25700 ft 429 kts 204°
2026-05-04 20:12 43.36643 -69.76444 25219 ft 423 kts 204°
2026-05-04 20:12 43.33877 -69.77682 24737 ft 418 kts 204°
2026-05-04 20:12 43.31110 -69.78922 24250 ft 414 kts 204°
2026-05-04 20:12 43.28424 -69.80126 23771 ft 410 kts 204°
2026-05-04 20:13 43.25740 -69.81327 23274 ft 406 kts 204°
2026-05-04 20:13 43.23048 -69.82530 22787 ft 402 kts 204°
2026-05-04 20:13 43.20428 -69.83699 22296 ft 399 kts 204°
2026-05-04 20:13 43.17807 -69.84867 21814 ft 395 kts 204°
2026-05-04 20:14 43.15175 -69.86041 21320 ft 392 kts 204°
2026-05-04 20:14 43.12620 -69.87180 20851 ft 388 kts 204°
2026-05-04 20:14 43.10065 -69.88319 20381 ft 385 kts 204°
2026-05-04 20:14 43.07527 -69.89446 19910 ft 382 kts 204°
2026-05-04 20:15 43.05030 -69.90555 19452 ft 379 kts 204°
2026-05-04 20:15 43.02526 -69.91666 18976 ft 376 kts 203°
2026-05-04 20:15 43.00057 -69.92755 18507 ft 372 kts 203°
2026-05-04 20:15 42.97592 -69.93839 18059 ft 369 kts 203°
2026-05-04 20:16 42.95168 -69.94909 17601 ft 366 kts 203°
2026-05-04 20:16 42.92762 -69.95971 17143 ft 363 kts 203°
2026-05-04 20:16 42.90384 -69.97021 16677 ft 361 kts 203°
2026-05-04 20:16 42.88003 -69.98072 16215 ft 358 kts 203°
2026-05-04 20:17 42.85646 -69.99114 15750 ft 355 kts 203°
2026-05-04 20:17 42.83301 -70.00152 15284 ft 352 kts 203°
2026-05-04 20:17 42.81003 -70.01163 14827 ft 349 kts 203°
2026-05-04 20:17 42.78690 -70.02180 14355 ft 347 kts 203°
2026-05-04 20:18 42.76408 -70.03186 13881 ft 344 kts 203°
2026-05-04 20:18 42.74163 -70.04267 13448 ft 340 kts 205°
2026-05-04 20:18 42.71956 -70.05358 13002 ft 337 kts 205°
2026-05-04 20:18 42.69759 -70.06445 12556 ft 335 kts 205°
2026-05-04 20:19 42.67594 -70.07518 12114 ft 333 kts 206°
2026-05-04 20:19 42.65597 -70.08998 11596 ft 322 kts 224°
2026-05-04 20:19 42.64195 -70.11278 11129 ft 310 kts 244°
2026-05-04 20:19 42.63270 -70.13890 10707 ft 306 kts 249°
2026-05-04 20:20 42.62402 -70.16466 10393 ft 299 kts 249°
2026-05-04 20:20 42.61554 -70.18970 10270 ft 286 kts 249°
2026-05-04 20:20 42.60746 -70.21372 10104 ft 273 kts 251°
2026-05-04 20:20 42.60212 -70.23783 9975 ft 258 kts 261°
2026-05-04 20:21 42.60000 -70.26166 9986 ft 257 kts 268°
2026-05-04 20:21 42.59884 -70.28580 9998 ft 258 kts 268°
2026-05-04 20:21 42.59670 -70.33439 10006 ft 258 kts 268°
2026-05-04 20:22 42.59559 -70.35875 10018 ft 259 kts 268°
2026-05-04 20:22 42.59448 -70.38314 10004 ft 259 kts 268°
2026-05-04 20:22 42.59336 -70.40755 10013 ft 259 kts 268°
2026-05-04 20:22 42.59224 -70.43183 10013 ft 259 kts 268°
2026-05-04 20:23 42.59110 -70.45632 10011 ft 259 kts 268°
2026-05-04 20:23 42.58995 -70.48056 9988 ft 259 kts 268°
2026-05-04 20:23 42.58879 -70.50505 9964 ft 259 kts 269°
2026-05-04 20:23 42.58765 -70.52934 9571 ft 261 kts 268°
2026-05-04 20:24 42.58613 -70.55354 9172 ft 259 kts 264°
2026-05-04 20:24 42.58279 -70.57771 8805 ft 257 kts 259°
2026-05-04 20:24 42.57806 -70.60065 8461 ft 254 kts 257°
2026-05-04 20:24 42.57315 -70.62345 8083 ft 251 kts 256°
2026-05-04 20:25 42.56821 -70.64622 7672 ft 250 kts 256°
2026-05-04 20:25 42.56330 -70.66878 7266 ft 249 kts 256°
2026-05-04 20:25 42.56088 -70.69138 6831 ft 247 kts 275°
2026-05-04 20:25 42.56638 -70.71349 6364 ft 250 kts 298°
2026-05-04 20:26 42.57690 -70.73229 5982 ft 250 kts 304°
2026-05-04 20:26 42.58754 -70.75063 5707 ft 245 kts 303°
2026-05-04 20:26 42.59838 -70.76778 5523 ft 239 kts 315°
2026-05-04 20:26 42.61391 -70.77624 5306 ft 248 kts 352°
2026-05-04 20:27 42.63071 -70.77157 5138 ft 250 kts 15°
2026-05-04 20:27 42.64653 -70.76305 4984 ft 242 kts 15°
2026-05-04 20:27 42.66209 -70.75491 4746 ft 238 kts 14°
2026-05-04 20:27 42.67758 -70.74707 4453 ft 237 kts 14°
2026-05-04 20:28 42.69297 -70.73934 4165 ft 237 kts 15°
2026-05-04 20:28 42.70859 -70.73133 3833 ft 237 kts 15°
2026-05-04 20:28 42.72386 -70.72345 3495 ft 238 kts 15°
2026-05-04 20:28 42.73929 -70.71546 3204 ft 237 kts 14°
2026-05-04 20:29 42.75463 -70.70753 3001 ft 236 kts 14°
2026-05-04 20:29 42.76997 -70.69959 2991 ft 237 kts 15°
2026-05-04 20:29 42.78554 -70.69154 2983 ft 237 kts 14°
2026-05-04 20:29 42.80088 -70.68359 2985 ft 236 kts 14°
2026-05-04 20:30 42.81630 -70.67561 2993 ft 237 kts 15°
2026-05-04 20:30 42.83165 -70.66781 2991 ft 235 kts 11°
2026-05-04 20:30 42.84726 -70.66645 2969 ft 219 kts 335°
2026-05-04 20:30 42.85946 -70.67722 3014 ft 204 kts 302°
2026-05-04 20:31 42.86492 -70.69416 2994 ft 194 kts 273°
2026-05-04 20:31 42.86325 -70.71210 2977 ft 192 kts 247°
2026-05-04 20:31 42.85510 -70.72655 2976 ft 197 kts 219°
2026-05-04 20:31 42.84282 -70.73523 2990 ft 201 kts 210°
2026-05-04 20:32 42.82977 -70.74360 3019 ft 218 kts 210°
2026-05-04 20:32 42.81555 -70.75279 3004 ft 228 kts 209°
2026-05-04 20:32 42.80129 -70.76189 2997 ft 230 kts 209°
2026-05-04 20:32 42.78671 -70.77109 2999 ft 230 kts 209°
2026-05-04 20:33 42.77232 -70.78018 2994 ft 230 kts 209°
2026-05-04 20:33 42.75771 -70.78941 2996 ft 230 kts 209°
2026-05-04 20:33 42.74327 -70.79851 3003 ft 229 kts 209°
2026-05-04 20:33 42.72951 -70.80897 3004 ft 226 kts 219°
2026-05-04 20:34 42.71695 -70.82214 3008 ft 226 kts 222°
2026-05-04 20:34 42.70451 -70.83506 3002 ft 227 kts 217°
2026-05-04 20:34 42.69050 -70.84550 3002 ft 230 kts 208°
2026-05-04 20:34 42.67580 -70.85381 3001 ft 231 kts 206°
2026-05-04 20:35 42.66074 -70.86156 2999 ft 231 kts 205°
2026-05-04 20:35 42.64559 -70.86910 3000 ft 232 kts 204°
2026-05-04 20:35 42.63051 -70.87650 2998 ft 231 kts 204°
2026-05-04 20:35 42.61538 -70.88387 2997 ft 231 kts 204°
2026-05-04 20:36 42.60013 -70.89126 2997 ft 231 kts 204°
2026-05-04 20:36 42.58510 -70.89854 3001 ft 230 kts 204°
2026-05-04 20:36 42.57034 -70.90565 2991 ft 219 kts 204°
2026-05-04 20:36 42.55650 -70.91230 2983 ft 202 kts 204°
2026-05-04 20:37 42.54374 -70.91844 2978 ft 186 kts 205°
2026-05-04 20:37 42.53197 -70.92413 3008 ft 170 kts 205°
2026-05-04 20:37 42.52090 -70.92952 2998 ft 171 kts 205°
2026-05-04 20:37 42.50974 -70.93495 2766 ft 169 kts 206°
2026-05-04 20:38 42.49875 -70.94029 2543 ft 167 kts 205°
2026-05-04 20:38 42.48783 -70.94556 2317 ft 166 kts 205°
2026-05-04 20:38 42.47699 -70.95081 2102 ft 165 kts 205°
2026-05-04 20:38 42.46626 -70.95600 1887 ft 165 kts 205°
2026-05-04 20:39 42.45554 -70.96119 1678 ft 163 kts 204°
2026-05-04 20:39 42.44509 -70.96622 1457 ft 152 kts 205°
2026-05-04 20:39 42.43567 -70.97075 1287 ft 135 kts 205°
2026-05-04 20:39 42.42725 -70.97479 1089 ft 122 kts 206°
2026-05-04 20:40 42.41929 -70.97870 945 ft 121 kts 206°
2026-05-04 20:40 42.41142 -70.98252 792 ft 121 kts 205°
2026-05-04 20:40 42.40341 -70.98640 646 ft 121 kts 205°
2026-05-04 20:40 42.39551 -70.99021 487 ft 121 kts 205°
2026-05-04 20:41 42.38755 -70.99412 321 ft 121 kts 205°
2026-05-04 20:41 42.37973 -70.99795 159 ft 119 kts 204°
2026-05-04 20:41 42.37181 -71.00178 19 ft 120 kts 202°
2026-05-04 20:41 42.36511 -71.00504 17 ft 77 kts 199°
2026-05-04 20:42 42.36172 -71.00684 17 ft 27 kts 229°
2026-05-04 20:42 42.36155 -71.00819 17 ft 14 kts 290°
2026-05-04 20:42 42.36190 -71.00937 19 ft 13 kts 294°
2026-05-04 20:42 42.36225 -71.01044 20 ft 7 kts 292°
2026-05-04 20:43 42.36250 -71.01116 21 ft 15 kts 294°
2026-05-04 20:43 42.36317 -71.01276 21 ft 19 kts 302°
2026-05-04 20:43 42.36373 -71.01386 21 ft 9 kts 329°
2026-05-04 20:43 42.36450 -71.01375 21 ft 14 kts 19°
2026-05-04 20:44 42.36547 -71.01315 20 ft 16 kts 25°
2026-05-04 20:44 42.36667 -71.01261 18 ft 20 kts 15°
2026-05-04 20:44 42.36782 -71.01264 18 ft 16 kts 324°
2026-05-04 20:44 42.36890 -71.01405 18 ft 24 kts 315°
2026-05-04 20:45 42.36965 -71.01517 18 ft 10 kts 297°
2026-05-04 20:45 42.36947 -71.01608 18 ft 10 kts 223°
2026-05-04 20:45 42.36895 -71.01662 18 ft 7 kts 215°
2026-05-04 20:45 42.36893 -71.01692 18 ft 3 kts 308°
2026-05-04 20:46 42.36911 -71.01713 18 ft 2 kts 325°
2026-05-04 20:46 42.36926 -71.01723 18 ft 1 kts 333°
2026-05-04 20:46 42.36927 -71.01723 18 ft 0 kts 334°